| time (UTC) | temp F | wind direction | speed MPH | gust MPH | rain 1hr in | rain 24hr in | rain mn in | humidity % | barometer mb |
| 20260508182154 | 65 | 45 | 1.0 | 4.0 | 0.00 | 0.06 | 0.01 | 83 | 1011.9 |
| 20260508181110 | 66 | 62 | 1.0 | 4.0 | 0.00 | 0.06 | 0.01 | 83 | 1011.8 |
| 20260508180106 | 66 | 83 | 0.0 | 2.0 | 0.00 | 0.06 | 0.01 | 83 | 1011.8 |
| 20260508175103 | 66 | 82 | 1.0 | 4.0 | 0.00 | 0.07 | 0.01 | 82 | 1011.7 |
| 20260508174123 | 66 | 0.0 | 2.0 | 0.00 | 0.07 | 0.01 | 81 | 1011.7 | |
| 20260508173058 | 66 | 54 | 1.0 | 2.0 | 0.00 | 0.07 | 0.01 | 80 | 1011.5 |
| 20260508172055 | 66 | 56 | 1.0 | 4.0 | 0.00 | 0.07 | 0.01 | 81 | 1011.4 |
| 20260508171051 | 66 | 55 | 1.0 | 4.0 | 0.00 | 0.08 | 0.01 | 82 | 1011.3 |
| 20260508170049 | 66 | 90 | 1.0 | 2.0 | 0.00 | 0.12 | 0.01 | 83 | 1011.5 |
| 20260508165045 | 66 | 51 | 1.0 | 6.0 | 0.00 | 0.13 | 0.01 | 82 | 1011.5 |
| 20260508164103 | 66 | 55 | 2.0 | 4.0 | 0.00 | 0.17 | 0.01 | 83 | 1011.4 |
| 20260508163040 | 66 | 85 | 3.0 | 7.0 | 0.00 | 0.18 | 0.01 | 83 | 1011.4 |
| 20260508162037 | 66 | 96 | 1.0 | 4.0 | 0.00 | 0.20 | 0.01 | 83 | 1011.1 |
| 20260508161034 | 66 | 98 | 2.0 | 7.0 | 0.00 | 0.20 | 0.01 | 84 | 1011.1 |
| 20260508160031 | 66 | 116 | 2.0 | 7.0 | 0.00 | 0.20 | 0.01 | 86 | 1011.1 |
| 20260508155028 | 65 | 61 | 3.0 | 7.0 | 0.00 | 0.21 | 0.01 | 90 | 1011.0 |
| 20260508154025 | 64 | 74 | 1.0 | 4.0 | 0.00 | 0.22 | 0.01 | 90 | 1011.2 |
| 20260508153022 | 65 | 90 | 2.0 | 4.0 | 0.00 | 0.22 | 0.01 | 89 | 1011.7 |
| 20260508152019 | 65 | 77 | 1.0 | 4.0 | 0.00 | 0.22 | 0.01 | 87 | 1011.8 |
| 20260508151016 | 65 | 77 | 2.0 | 4.0 | 0.00 | 0.22 | 0.01 | 85 | 1011.9 |
| 20260508150133 | 65 | 45 | 1.0 | 4.0 | 0.00 | 0.22 | 0.01 | 86 | 1011.9 |
| 20260508145111 | 65 | 62 | 1.0 | 4.0 | 0.00 | 0.22 | 0.01 | 86 | 1011.7 |
| 20260508144107 | 65 | 45 | 1.0 | 4.0 | 0.00 | 0.22 | 0.01 | 85 | 1012.0 |
| 20260508143103 | 65 | 45 | 0.0 | 4.0 | 0.00 | 0.22 | 0.01 | 84 | 1012.4 |
| 20260508142101 | 65 | 45 | 1.0 | 4.0 | 0.00 | 0.22 | 0.01 | 83 | 1012.7 |
| 20260508141058 | 65 | 45 | 2.0 | 4.0 | 0.00 | 0.22 | 0.01 | 84 | 1012.6 |
| 20260508140055 | 65 | 45 | 1.0 | 6.0 | 0.00 | 0.22 | 0.01 | 83 | 1012.7 |
| 20260508135052 | 65 | 54 | 1.0 | 4.0 | 0.00 | 0.22 | 0.01 | 83 | 1012.7 |
| 20260508134049 | 66 | 87 | 3.0 | 7.0 | 0.00 | 0.22 | 0.01 | 82 | 1012.4 |
| 20260508133046 | 66 | 99 | 2.0 | 4.0 | 0.00 | 0.22 | 0.01 | 81 | 1012.3 |
| 20260508132042 | 66 | 72 | 1.0 | 4.0 | 0.00 | 0.22 | 0.01 | 81 | 1012.0 |
| 20260508131039 | 66 | 123 | 2.0 | 4.0 | 0.00 | 0.22 | 0.01 | 81 | 1012.0 |
| 20260508130057 | 66 | 73 | 2.0 | 6.0 | 0.00 | 0.22 | 0.01 | 82 | 1012.2 |
| 20260508125034 | 66 | 75 | 2.0 | 6.0 | 0.00 | 0.22 | 0.01 | 79 | 1012.2 |
| 20260508124030 | 68 | 56 | 3.0 | 7.0 | 0.00 | 0.22 | 0.01 | 76 | 1012.1 |
| 20260508123027 | 69 | 92 | 3.0 | 9.0 | 0.00 | 0.22 | 0.01 | 73 | 1011.9 |
| 20260508122104 | 70 | 68 | 3.0 | 8.0 | 0.00 | 0.22 | 0.01 | 71 | 1011.9 |
| 20260508121022 | 70 | 69 | 2.0 | 4.0 | 0.00 | 0.22 | 0.01 | 72 | 1012.0 |
| 20260508120018 | 68 | 59 | 3.0 | 7.0 | 0.00 | 0.22 | 0.01 | 75 | 1012.2 |
| 20260508115015 | 67 | 64 | 2.0 | 6.0 | 0.00 | 0.22 | 0.01 | 79 | 1012.2 |
| 20260508114112 | 66 | 77 | 2.0 | 7.0 | 0.00 | 0.22 | 0.01 | 81 | 1012.3 |
| 20260508113110 | 66 | 101 | 3.0 | 9.0 | 0.00 | 0.22 | 0.01 | 78 | 1012.1 |
| 20260508112127 | 66 | 52 | 1.0 | 4.0 | 0.00 | 0.22 | 0.01 | 78 | 1012.2 |
| 20260508111104 | 66 | 77 | 1.0 | 4.0 | 0.00 | 0.22 | 0.01 | 78 | 1012.4 |
| 20260508110101 | 66 | 45 | 2.0 | 6.0 | 0.00 | 0.22 | 0.01 | 78 | 1012.4 |
| 20260508105058 | 67 | 81 | 3.0 | 11.0 | 0.00 | 0.22 | 0.01 | 76 | 1012.5 |
| 20260508104055 | 67 | 86 | 4.0 | 8.0 | 0.00 | 0.22 | 0.01 | 74 | 1012.3 |
| 20260508103052 | 67 | 86 | 2.0 | 7.0 | 0.00 | 0.22 | 0.01 | 75 | 1012.3 |
| 20260508102049 | 66 | 64 | 3.0 | 7.0 | 0.00 | 0.22 | 0.01 | 76 | 1012.4 |
| 20260508101106 | 67 | 79 | 2.0 | 6.0 | 0.00 | 0.22 | 0.01 | 75 | 1012.4 |
| 20260508100043 | 67 | 62 | 3.0 | 6.0 | 0.00 | 0.22 | 0.01 | 76 | 1012.4 |
| 20260508095121 | 66 | 103 | 4.0 | 11.0 | 0.00 | 0.22 | 0.01 | 77 | 1012.4 |
| 20260508094037 | 66 | 68 | 3.0 | 8.0 | 0.00 | 0.22 | 0.01 | 78 | 1012.6 |
| 20260508093034 | 65 | 60 | 3.0 | 8.0 | 0.00 | 0.22 | 0.01 | 81 | 1012.5 |
| 20260508092031 | 64 | 64 | 3.0 | 7.0 | 0.00 | 0.22 | 0.01 | 83 | 1012.4 |
| 20260508091028 | 63 | 49 | 2.0 | 6.0 | 0.00 | 0.22 | 0.01 | 84 | 1012.5 |
| 20260508090025 | 63 | 98 | 2.0 | 6.0 | 0.00 | 0.22 | 0.01 | 84 | 1012.6 |
| 20260508085022 | 63 | 52 | 2.0 | 4.0 | 0.00 | 0.22 | 0.01 | 84 | 1012.4 |
| 20260508084018 | 63 | 52 | 1.0 | 4.0 | 0.00 | 0.22 | 0.01 | 86 | 1012.4 |
| 20260508083036 | 61 | 49 | 2.0 | 9.0 | 0.00 | 0.22 | 0.01 | 88 | 1012.3 |
| 20260508082113 | 61 | 45 | 4.0 | 8.0 | 0.00 | 0.22 | 0.01 | 89 | 1012.4 |
| 20260508081110 | 60 | 45 | 2.0 | 7.0 | 0.00 | 0.22 | 0.01 | 91 | 1012.4 |
| 20260508080107 | 60 | 42 | 2.0 | 4.0 | 0.00 | 0.22 | 0.01 | 92 | 1012.3 |
| 20260508075124 | 59 | 31 | 2.0 | 8.0 | 0.00 | 0.22 | 0.01 | 95 | 1012.2 |
| 20260508074101 | 59 | 45 | 3.0 | 6.0 | 0.00 | 0.22 | 0.01 | 96 | 1012.0 |
| 20260508073058 | 59 | 38 | 2.0 | 7.0 | 0.00 | 0.22 | 0.01 | 97 | 1012.1 |
| 20260508072055 | 58 | 87 | 2.0 | 7.0 | 0.00 | 0.22 | 0.01 | 98 | 1012.1 |
| 20260508071052 | 58 | 45 | 2.0 | 4.0 | 0.00 | 0.22 | 0.01 | 99 | 1011.9 |
| 20260508070109 | 58 | 45 | 1.0 | 4.0 | 0.00 | 0.22 | 0.01 | 99 | 1011.9 |
| 20260508065046 | 57 | 45 | 1.0 | 4.0 | 0.00 | 0.22 | 0.01 | 99 | 1011.7 |
| 20260508064043 | 57 | 45 | 0.0 | 2.0 | 0.00 | 0.22 | 0.01 | 99 | 1011.7 |
| 20260508063040 | 57 | 45 | 0.0 | 2.0 | 0.00 | 0.22 | 0.01 | 99 | 1011.6 |
| 20260508062037 | 57 | 0.0 | 2.0 | 0.00 | 0.22 | 0.01 | 99 | 1011.7 | |
| 20260508061034 | 57 | 45 | 0.0 | 2.0 | 0.00 | 0.22 | 0.01 | 99 | 1011.5 |
| 20260508060031 | 57 | 45 | 0.0 | 2.0 | 0.00 | 0.22 | 0.01 | 99 | 1011.3 |
| 20260508055028 | 57 | 0.0 | 2.0 | 0.00 | 0.22 | 0.01 | 99 | 1011.4 | |
| 20260508054026 | 57 | 0.0 | 0.0 | 0.00 | 0.22 | 0.01 | 99 | 1011.4 | |
| 20260508053104 | 56 | 0.0 | 0.0 | 0.00 | 0.22 | 0.01 | 99 | 1011.2 | |
| 20260508052019 | 56 | 0.0 | 0.0 | 0.00 | 0.22 | 0.01 | 99 | 1010.8 | |
| 20260508051016 | 55 | 23 | 0.0 | 2.0 | 0.00 | 0.22 | 0.01 | 99 | 1010.4 |
| 20260508050113 | 55 | 0.0 | 0.0 | 0.00 | 0.22 | 0.01 | 99 | 1010.2 | |
| 20260508045110 | 55 | 0.0 | 2.0 | 0.00 | 0.22 | 0.01 | 99 | 1010.0 | |
| 20260508044107 | 55 | 0.0 | 0.0 | 0.00 | 0.22 | 0.01 | 99 | 1010.0 | |
| 20260508043104 | 55 | 0.0 | 2.0 | 0.00 | 0.22 | 0.01 | 99 | 1009.9 | |
| 20260508042101 | 56 | 0.0 | 2.0 | 0.00 | 0.22 | 0.01 | 99 | 1010.1 | |
| 20260508041058 | 56 | 0.0 | 0.0 | 0.00 | 0.22 | 0.01 | 99 | 1010.0 | |
| 20260508040116 | 56 | 23 | 0.0 | 2.0 | 0.00 | 0.22 | 0.01 | 99 | 1009.9 |
| 20260508035052 | 56 | 0.0 | 0.0 | 0.00 | 0.22 | 0.01 | 99 | 1009.9 | |
| 20260508034049 | 56 | 23 | 0.0 | 2.0 | 0.00 | 0.22 | 0.01 | 99 | 1010.1 |
| 20260508033046 | 56 | 0.0 | 0.0 | 0.00 | 0.22 | 0.01 | 99 | 1010.3 | |
| 20260508032043 | 56 | 0.0 | 0.0 | 0.00 | 0.22 | 0.01 | 99 | 1010.3 | |
| 20260508031100 | 56 | 0.0 | 0.0 | 0.00 | 0.22 | 0.01 | 99 | 1010.3 | |
| 20260508030038 | 56 | 0.0 | 0.0 | 0.00 | 0.22 | 0.01 | 99 | 1010.3 | |
| 20260508025034 | 56 | 0.0 | 0.0 | 0.00 | 0.22 | 0.01 | 99 | 1010.3 | |
| 20260508024031 | 56 | 0.0 | 0.0 | 0.00 | 0.22 | 0.01 | 99 | 1010.4 | |
| 20260508023028 | 56 | 0.0 | 0.0 | 0.00 | 0.22 | 0.01 | 99 | 1010.3 | |
| 20260508022045 | 57 | 0.0 | 2.0 | 0.00 | 0.22 | 0.01 | 99 | 1010.3 | |
| 20260508021022 | 56 | 0.0 | 2.0 | 0.00 | 0.22 | 0.01 | 99 | 1010.3 | |
| 20260508020019 | 57 | 23 | 0.0 | 2.0 | 0.00 | 0.22 | 0.01 | 99 | 1010.1 |
| 20260508015057 | 57 | 30 | 0.0 | 2.0 | 0.00 | 0.22 | 0.01 | 99 | 1010.1 |
| 20260508014113 | 57 | 45 | 0.0 | 2.0 | 0.00 | 0.22 | 0.01 | 99 | 1010.3 |
| 20260508013151 | 57 | 45 | 0.0 | 2.0 | 0.00 | 0.22 | 0.01 | 99 | 1010.3 |
| 20260508012107 | 57 | 0.0 | 2.0 | 0.00 | 0.22 | 0.01 | 99 | 1010.4 | |
| 20260508011104 | 57 | 0.0 | 0.0 | 0.00 | 0.22 | 0.01 | 99 | 1010.4 | |
| 20260508010122 | 57 | 45 | 0.0 | 2.0 | 0.00 | 0.22 | 0.01 | 99 | 1010.5 |
| 20260508005058 | 57 | 0.0 | 0.0 | 0.00 | 0.22 | 0.01 | 99 | 1010.5 | |
| 20260508004055 | 57 | 45 | 0.0 | 2.0 | 0.01 | 0.22 | 0.01 | 99 | 1010.7 |
| 20260508003113 | 57 | 0.0 | 2.0 | 0.01 | 0.22 | 0.01 | 99 | 1010.8 | |
| 20260508002049 | 57 | 45 | 0.0 | 2.0 | 0.01 | 0.22 | 0.01 | 99 | 1011.0 |
| 20260508001107 | 56 | 45 | 0.0 | 2.0 | 0.01 | 0.22 | 0.01 | 99 | 1011.0 |
| 20260508000104 | 56 | 24 | 0.0 | 2.0 | 0.01 | 0.22 | 0.01 | 99 | 1011.1 |
| 20260507235101 | 56 | 0.0 | 2.0 | 0.01 | 0.22 | 0.01 | 99 | 1011.1 | |
| 20260507234037 | 56 | 338 | 0.0 | 2.0 | 0.00 | 0.21 | 0.00 | 99 | 1011.3 |
| 20260507233034 | 56 | 0.0 | 2.0 | 0.00 | 0.21 | 0.00 | 99 | 1011.6 | |
| 20260507232032 | 56 | 0.0 | 2.0 | 0.00 | 0.21 | 0.00 | 99 | 1011.6 | |
| 20260507231028 | 56 | 45 | 0.0 | 2.0 | 0.00 | 0.21 | 0.00 | 99 | 1011.6 |
| 20260507230026 | 57 | 248 | 0.0 | 6.0 | 0.00 | 0.21 | 0.00 | 99 | 1011.8 |
| 20260507225023 | 57 | 315 | 0.0 | 2.0 | 0.00 | 0.21 | 0.00 | 99 | 1011.9 |
| 20260507224020 | 57 | 0.0 | 0.0 | 0.00 | 0.21 | 0.00 | 99 | 1011.7 | |
| 20260507223017 | 57 | 0.0 | 2.0 | 0.00 | 0.21 | 0.00 | 99 | 1011.8 | |
| 20260507222113 | 57 | 0.0 | 2.0 | 0.00 | 0.21 | 0.00 | 99 | 1011.6 | |
| 20260507221110 | 57 | 0.0 | 2.0 | 0.00 | 0.21 | 0.00 | 99 | 1011.6 | |
| 20260507220107 | 57 | 0.0 | 0.0 | 0.00 | 0.21 | 0.00 | 99 | 1011.4 | |
| 20260507215104 | 57 | 0.0 | 2.0 | 0.01 | 0.21 | 0.21 | 99 | 1011.3 | |
| 20260507214102 | 57 | 0.0 | 2.0 | 0.01 | 0.21 | 0.21 | 99 | 1011.3 | |
| 20260507213058 | 57 | 315 | 0.0 | 2.0 | 0.01 | 0.21 | 0.21 | 99 | 1011.5 |
| 20260507212055 | 58 | 0.0 | 0.0 | 0.01 | 0.21 | 0.21 | 99 | 1011.5 | |
| 20260507211053 | 58 | 0.0 | 0.0 | 0.01 | 0.21 | 0.21 | 99 | 1011.7 | |
| 20260507210049 | 58 | 315 | 1.0 | 2.0 | 0.01 | 0.21 | 0.21 | 99 | 1011.6 |
| 20260507205046 | 58 | 315 | 0.0 | 2.0 | 0.00 | 0.20 | 0.20 | 99 | 1011.6 |
| 20260507204043 | 58 | 0.0 | 0.0 | 0.01 | 0.20 | 0.20 | 99 | 1011.6 | |
| 20260507203041 | 58 | 315 | 1.0 | 2.0 | 0.01 | 0.20 | 0.20 | 99 | 1011.6 |
| 20260507202037 | 58 | 315 | 1.0 | 2.0 | 0.01 | 0.20 | 0.20 | 99 | 1011.5 |
| 20260507201035 | 58 | 0 | 2.0 | 4.0 | 0.01 | 0.20 | 0.20 | 99 | 1011.3 |
| 20260507200031 | 58 | 45 | 1.0 | 2.0 | 0.01 | 0.20 | 0.20 | 99 | 1011.2 |
| 20260507195049 | 58 | 0.0 | 0.0 | 0.02 | 0.20 | 0.20 | 99 | 1011.1 | |
| 20260507194026 | 58 | 90 | 0.0 | 2.0 | 0.01 | 0.19 | 0.19 | 99 | 1011.0 |
| 20260507193023 | 59 | 60 | 1.0 | 4.0 | 0.02 | 0.19 | 0.19 | 99 | 1010.8 |
| 20260507192020 | 59 | 0.0 | 0.0 | 0.02 | 0.19 | 0.19 | 99 | 1010.4 | |
| 20260507191017 | 59 | 0.0 | 2.0 | 0.02 | 0.19 | 0.19 | 99 | 1010.5 | |
| 20260507190114 | 59 | 0.0 | 2.0 | 0.02 | 0.19 | 0.19 | 99 | 1010.5 | |
| 20260507185111 | 59 | 0.0 | 0.0 | 0.02 | 0.18 | 0.18 | 99 | 1010.4 | |
| 20260507184228 | 59 | 0.0 | 0.0 | 0.02 | 0.18 | 0.18 | 98 | 1010.3 | |
| 20260507183105 | 59 | 45 | 0.0 | 2.0 | 0.01 | 0.17 | 0.17 | 98 | 1010.1 |